Location: Wildlife_Club
(35.6000°N, 81.4330°W)
Time: 16:39:38
(UTC-04:00)

Iridium 56 - Visible Passes

Search period start: 23 May 2017 00:00
Search period end: 02 June 2017 00:00
Orbit: 776 x 779 km, 86.4° (Epoch: 22 May)

Date Brightness Start Highest point End Pass type
(mag) Time Alt. Az. Time Alt. Az. Time Alt. Az.
23 May 7.5 21:55:53 10° NNW 22:00:16 28° W 22:04:38 10° SW visible
24 May 6.3 21:21:50 10° NNW 21:26:55 54° W 21:31:58 10° SSW visible
26 May 8.1 21:56:36 10° NW 22:00:11 19° W 22:03:46 10° SW visible
27 May 7.2 21:22:10 10° NNW 21:26:54 36° W 21:31:37 10° SSW visible
29 May 8.5 21:57:52 10° NW 22:00:04 13° WNW 22:02:16 10° WSW visible
30 May 7.9 21:22:41 10° NNW 21:26:51 25° W 21:31:00 10° SW visible
